Jefferson City, MO

8:24 AM CDT on June 28, 2017 (GMT -0500)
Jefferson City Memorial

Weather History for KJEF - January, 2014

Change the Weather History Date:

Monday, January 6, 2014

  Actual Average Record
Temperature  
Mean Temperature -4 °F -  
Max Temperature 1 °F 39 °F 73 °F (2008)
Min Temperature -9 °F 19 °F -15 °F (1924)
Degree Days  
Heating Degree Days 69    
Moisture  
Dew Point -17 °F    
Average Humidity 53    
Maximum Humidity 68    
Minimum Humidity 47    
Precipitation  
Precipitation 0.00 in - - ()
Sea Level Pressure  
Sea Level Pressure 30.53 in    
Wind  
Wind Speed 12 mph (WNW)    
Max Wind Speed 22 mph    
Max Gust Speed 28 mph    
Visibility 10 miles    
Events      
Averages and records for this station are not official NWS values.
T = Trace of Precipitation, MM = Missing Value Source: NWS Daily Summary

Daily Weather History Graph

Daily Weather History Graph

Search for Another Location

Airport or City:

Trip Planner

Search our weather history database for the weather conditions in past years. The results will help you decide how hot, cold, wet, or windy it might be!

Date:

Astronomy

Jan. 06, 2014 Rise Set
Actual Time 7:26 AM CST 5:02 PM CST
Civil Twilight 6:57 AM CST 5:32 PM CST
Nautical Twilight 6:24 AM CST 6:05 PM CST
Astronomical Twilight 5:52 AM CST 6:37 PM CST
Moon 10:46 AM CST (1/6) 11:31 PM CST (1/6)
Length of Visible Light 10h 35m
Length of Day
9h 36m
Waxing Crescent, 35% of the Moon is Illuminated
Jan 6
Waxing Crescent
Jan 7
First Quarter
Jan 15
Full
Jan 23
Last Quarter
Jan 30
New

Hourly Weather History & Observations

Time (CST) Temp. Windchill Dew Point Humidity Pressure Visibility Wind Dir Wind Speed Gust Speed Precip Events Conditions
12:53 AM 1.0 °F -18.0 °F -15.0 °F 47% 30.45 in 10.0 mi NW 15.0 mph 21.9 mph N/A   Clear
1:53 AM -0.0 °F -17.1 °F -15.0 °F 49% 30.48 in 10.0 mi NW 11.5 mph 19.6 mph N/A   Clear
2:53 AM -2.0 °F -19.6 °F -15.0 °F 54% 30.50 in 10.0 mi WNW 11.5 mph - N/A   Clear
3:53 AM -4.0 °F -23.7 °F -18.9 °F 49% 30.51 in 10.0 mi WNW 13.8 mph - N/A   Clear
4:53 AM -6.0 °F -25.5 °F -18.0 °F 56% 30.52 in 10.0 mi WNW 12.7 mph - N/A   Clear
5:53 AM -7.1 °F -27.6 °F -18.0 °F 59% 30.53 in 10.0 mi WNW 13.8 mph - N/A   Clear
6:53 AM -7.1 °F -25.9 °F -20.9 °F 51% 30.54 in 10.0 mi WNW 11.5 mph - N/A   Clear
7:53 AM -8.0 °F -25.0 °F -20.9 °F 53% 30.56 in 10.0 mi WNW 9.2 mph - N/A   Clear
8:53 AM -7.1 °F -25.9 °F -20.0 °F 53% 30.58 in 10.0 mi WNW 11.5 mph - N/A   Clear
9:53 AM -5.1 °F -27.8 °F -18.0 °F 54% 30.58 in 10.0 mi WNW 18.4 mph 24.2 mph N/A   Clear
10:53 AM -4.0 °F -28.1 °F -18.0 °F 51% 30.57 in 10.0 mi WNW 21.9 mph 27.6 mph N/A   Partly Cloudy
11:53 AM -2.0 °F -21.9 °F -16.1 °F 51% 30.55 in 10.0 mi West 15.0 mph - N/A   Partly Cloudy
12:53 PM -0.9 °F -19.1 °F -16.1 °F 49% 30.53 in 10.0 mi WNW 12.7 mph - N/A   Mostly Cloudy
1:53 PM -0.0 °F -21.3 °F -15.0 °F 49% 30.52 in 10.0 mi WNW 18.4 mph 25.3 mph N/A   Overcast
2:53 PM -0.0 °F -20.7 °F -15.0 °F 49% 30.53 in 10.0 mi West 17.3 mph - N/A   Mostly Cloudy
3:53 PM 1.0 °F -18.7 °F -15.0 °F 47% 30.53 in 10.0 mi West 16.1 mph - N/A   Clear
4:53 PM -0.0 °F -18.0 °F -15.0 °F 49% 30.53 in 10.0 mi WNW 12.7 mph - N/A   Clear
5:53 PM -0.9 °F -15.3 °F -16.1 °F 49% 30.54 in 10.0 mi West 8.1 mph - N/A   Clear
6:53 PM -0.9 °F -15.3 °F -15.0 °F 52% 30.56 in 10.0 mi West 8.1 mph - N/A   Clear
7:53 PM -2.9 °F - -15.0 °F 56% 30.55 in 10.0 mi Calm Calm - N/A   Clear
8:53 PM -2.9 °F - -14.1 °F 59% 30.55 in 10.0 mi Calm Calm - N/A   Clear
9:53 PM -5.1 °F - -15.0 °F 62% 30.54 in 10.0 mi Calm Calm - N/A   Clear
10:53 PM -9.0 °F - -17.0 °F 68% 30.52 in 10.0 mi Calm Calm - N/A   Clear
11:53 PM -6.0 °F -14.7 °F -15.0 °F 65% 30.51 in 10.0 mi ESE 3.5 mph - N/A   Clear